Талса

United States     36˚12′00″N   85˚54′00″W
temp.,
°C
wind,
m/s
gust,
m/s
humid.,
%
clouds,
%
prec.,
mm/h
press.,
hPa
HPBL,
m
2 december, wed
wed200:00−2˚wsw11720 0.0 102621
03:00−3˚w11730 0.0 102721
06:00−3˚w11753 0.0 103021
09:00+2˚se005338 0.0 1031286
12:00+7˚ene014053 0.0 1029511
15:00+7˚ene124418 0.0 1028506
18:00ene11629 0.0 102922
21:00−1˚ene116633 0.0 102821
3 december, thu
thu300:00−1˚ene117044 0.0 102821
03:00−1˚ne1169100 0.0 102721
06:00s1166100 0.0 102721
09:00+5˚ese1254100 0.0 1027142
12:00+9˚e224794 0.0 1024311
15:00+10˚s115790 0.0 102235
18:00+7˚ene006596 0.0 102322
21:00+6˚ene007099 0.0 102222
4 december, fri
fri400:00+6˚se0176100 0.4 102122
03:00+5˚ene1296100 7.1 102098
06:00+6˚se3797100 15.2 1019226
09:00+7˚se1397100 8.7 1018156
12:00+8˚ese1199100 15.4 101680
15:00+9˚ese2399100 3.1 1013101
18:00+9˚ese2498100 4.7 1012118
21:00+9˚se1198100 2.1 101123
5 december, sat
sat500:00+9˚w61095100 3.6 1011516
03:00+6˚w61094100 0.6 1011549
06:00+6˚wnw71392100 2.9 1013766
09:00+7˚wnw588696 0.6 1016750
12:00+9˚wnw587281 0.6 10161042
15:00+9˚wnw48692 0.0 10151150
18:00+5˚wnw23854 0.0 101784
21:00+3˚wnw12921 0.0 101722
6 december, sun
sun600:00+2˚w11940 0.0 101722
03:00+1˚ssw11940 0.0 101622
06:00+1˚s12950 0.0 101623
09:00+5˚ssw24800 0.0 1016330
12:00+9˚wsw34650 0.0 1014940
15:00+9˚wsw237090 0.0 1013960
18:00+7˚w018095 0.1 101522
21:00+7˚wnw1282100 0.1 101628